#timestamp,LO_Frequency,Hit,StdDev 
1514520015.2,286047000.6,P
1514520035.9,286046997.5,N
1514520055.7,286046997.3,N
1514520075.6,286046999.2,N
1514520095.4,286046999.2,N
1514520115.2,286046996.2,N
1514520135.0,286046993.9,N
1514520135.9,286046993.9,N
1514520155.8,286046996.2,N
1514520175.6,286046991.8,Y
1514520195.4,286046995.4,P
1514520215.3,286046997.5,P
1514520235.1,286046997.9,N
1514520255.8,286046997.0,Y
1514520275.7,286047000.6,P
1514520295.5,286046998.2,N
1514520315.3,286046994.9,P
1514520335.2,286046996.2,N
1514520355.9,286046995.1,N
1514520375.7,286046996.1,N
1514520395.6,286046991.8,Y
1514520415.4,286046994.8,P
1514520435.2,286046994.0,P
1514520455.1,286046995.2,P
1514520456.0,286046995.2,Y
1514520475.8,286047000.2,P
1514520495.6,286046999.3,N
1514520515.5,286046999.4,N
1514520535.3,286046996.7,N
1514520555.1,286046997.5,N
1514520575.9,286046998.9,N
1514520595.7,286046996.7,N
1514520615.5,286046996.9,N
1514520635.4,286046998.9,N
1514520655.2,286046997.9,N
1514520675.0,286046998.0,N
1514520675.9,286046998.0,N
1514520695.7,286046996.5,N
1514520715.6,286046998.7,N
1514520735.4,286047002.6,N
1514520755.2,286047004.0,N
1514520775.1,286046999.7,N
1514520776.0,286046999.7,N
1514520795.8,286046999.5,N
1514520815.6,286046998.5,N
1514520835.5,286047001.8,N
1514520855.3,286047004.0,N
1514520875.2,286047010.1,Y
1514520895.9,286047006.4,P
1514520915.7,286047010.3,N
1514520935.5,286047010.7,N
1514520955.4,286047012.9,N
1514520975.2,286047018.2,Y
1514520995.0,286047013.0,P
1514520995.9,286047013.0,P
1514521015.8,286047013.5,P
1514521035.6,286047014.2,Y
1514521055.4,286047006.9,P
1514521075.3,286047008.4,P
1514521095.1,286047017.1,P
1514521115.9,286047019.6,Y
1514521135.7,286047011.1,P
1514521155.5,286047014.5,P
1514521175.3,286047017.8,P
1514521195.2,286047020.8,Y
1514521215.0,286047017.0,P
1514521215.9,286047017.0,P
1514521235.8,286047009.4,P
1514521255.6,286047009.9,Y
1514521275.4,286046993.7,P
1514521295.3,286046994.5,N
1514521315.1,286046996.4,N
1514521316.0,286046996.4,N
1514521335.8,286046991.3,N
1514521355.6,286046992.7,N
1514521375.5,286046995.6,N
1514521395.3,286046995.7,N
1514521415.1,286046999.3,N
1514521435.9,286046997.8,N
1514521455.7,286046997.8,N
1514521475.5,286046997.9,N
1514521495.4,286046997.7,N
1514521515.2,286046992.2,N
1514521535.0,286046994.3,N
1514521535.9,286046994.3,N
1514521555.8,286046996.4,N
1514521575.6,286046994.0,N
1514521595.4,286046990.2,N
1514521615.3,286046991.2,N
1514521635.1,286046994.7,N
1514521636.0,286046994.7,N
1514521655.8,286046994.4,N
1514521675.7,286046989.2,N
1514521695.5,286046990.0,N
1514521715.3,286046984.8,Y
1514521735.2,286046985.5,P
1514521755.9,286046979.0,P
1514521775.7,286046978.5,P
1514521795.6,286046975.1,Y
1514521815.4,286046985.9,P
1514521835.2,286046982.7,P
1514521855.0,286046983.5,P
1514521856.0,286046983.5,Y
1514521875.8,286046997.5,P
1514521895.6,286046996.6,N
1514521915.5,286046996.6,N
1514521935.3,286046996.9,N
1514521955.1,286046995.7,N
1514521975.8,286046997.3,N
1514521995.7,286046997.1,N
1514522015.5,286046999.0,N
1514522035.3,286046995.1,N
1514522055.2,286046997.2,N
1514522075.9,286046999.2,N
1514522095.7,286046998.8,N
1514522115.6,286047000.0,N
1514522135.4,286046996.8,N
1514522155.2,286046993.5,N
1514522175.1,286046994.8,N
1514522176.0,286046994.8,N
1514522195.8,286046995.5,N
1514522215.6,286046998.4,N
1514522235.5,286046998.9,N
1514522255.3,286046999.8,N
1514522275.1,286047003.2,N
1514522295.8,286047007.6,N
1514522315.7,286047008.5,N
1514522335.5,286047011.1,N
1514522355.3,286047011.3,N
1514522375.2,286047010.9,N
1514522395.9,286047013.2,N
1514522415.7,286047017.1,N
1514522435.6,286047018.6,N
1514522455.4,286047020.0,N
1514522475.2,286047021.8,N
1514522495.1,286047020.9,N
1514522496.0,286047020.9,N
1514522515.8,286047023.3,N
1514522535.6,286047020.6,N
1514522555.5,286047018.1,N
1514522575.3,286047017.3,N
1514522595.1,286047017.3,N
1514522615.8,286047017.8,N
1514522635.7,286047021.7,N
1514522655.5,286047020.9,N
1514522675.3,286047025.5,N
1514522695.2,286047029.9,N
1514522715.9,286047025.7,N
1514522735.7,286047027.6,N
1514522755.6,286047025.3,N
1514522775.4,286047024.9,N
1514522795.2,286047024.9,N
1514522815.1,286047024.0,Y
1514522816.0,286047024.0,P
1514522835.8,286047008.6,N
1514522855.6,286047008.8,N
1514522875.5,286047010.5,N
1514522895.3,286047008.6,N
1514522915.1,286047007.1,N
1514522935.9,286047008.7,N
1514522955.7,286047009.1,N
1514522975.5,286047013.7,N
1514522995.3,286047013.6,N
1514523015.2,286047009.6,N
1514523035.0,286047009.0,N
1514523035.9,286047009.0,N
1514523055.7,286047009.4,N
1514523075.6,286047012.6,N
1514523095.4,286047014.8,Y
1514523115.2,286047003.5,P
1514523135.1,286047002.4,N
1514523136.0,286047002.4,N
1514523155.8,286047002.5,N
1514523175.6,286047004.1,N
1514523195.5,286047003.4,N
1514523215.3,286047005.9,N
1514523235.1,286047003.7,N
1514523255.9,286047000.0,N
1514523275.7,286046999.8,N
1514523295.5,286047003.8,N
1514523315.4,286047001.2,N
1514523335.2,286046997.3,N
1514523355.0,286046995.8,N
1514523355.9,286046995.8,N
1514523375.8,286046992.7,N
1514523395.6,286046992.8,N
1514523415.4,286046991.4,N
1514523435.2,286046989.4,N
1514523455.1,286046987.5,N
1514523456.0,286046987.5,N
1514523475.8,286046988.8,N
1514523495.6,286046988.5,N
1514523515.5,286046992.4,N
1514523535.3,286046992.8,N
1514523555.1,286046992.4,N
1514523575.9,286046993.0,N
1514523595.7,286046989.2,N
